San Jose, Costa Rica

2:42 AM CST on August 24, 2017 (GMT -0600)
Juan Santamaria International

Weather History for MROC - September, 2012

Change the Weather History Date:

Thursday, September 27, 2012

  Actual Average Record
Temperature  
Mean Temperature 72 °F -  
Max Temperature 81 °F 78 °F 88 °F (2015)
Min Temperature 63 °F 64 °F 62 °F (2000)
Cooling Degree Days 7    
Growing Degree Days 22 (Base 50)    
Moisture  
Dew Point 64 °F    
Average Humidity 84    
Maximum Humidity 94    
Minimum Humidity 61    
Precipitation  
Precipitation 1.89 in 0.44 in - ()
Sea Level Pressure  
Sea Level Pressure 29.96 in    
Wind  
Wind Speed 4 mph ()    
Max Wind Speed 14 mph    
Max Gust Speed -    
Visibility 6.2 miles    
Events Fog , Rain , Thunderstorm    
Averages and records for this station are not official NWS values.
T = Trace of Precipitation, MM = Missing Value Source: Averaged Metar Reports

Daily Weather History Graph

Daily Weather History Graph

Search for Another Location

Airport or City:

Trip Planner

Search our weather history database for the weather conditions in past years. The results will help you decide how hot, cold, wet, or windy it might be!

Date:

Astronomy

Sep. 27, 2012 Rise Set
Actual Time 5:25 AM CST 5:29 PM CST
Civil Twilight 5:04 AM CST 5:50 PM CST
Nautical Twilight 4:40 AM CST 6:14 PM CST
Astronomical Twilight 4:15 AM CST 6:39 PM CST
Moon 3:46 PM CST (9/27) 3:14 AM CST (9/27)
Length of Visible Light 12h 45m
Length of Day
12h 03m
Waxing Gibbous, 94% of the Moon is Illuminated
Sep 27
Waxing Gibbous
Sep 29
Full
Oct 8
Last Quarter
Oct 15
New
Oct 21
First Quarter

Hourly Weather History & Observations

Time (CST) Temp. Heat Index Dew Point Humidity Pressure Visibility Wind Dir Wind Speed Gust Speed Precip Events Conditions
12:00 AM 67 °F - 64 °F 85% 29.84 in 12 mi NNE 4.6 mph - -   Clear
12:00 AM 68.0 °F - 64.4 °F 88% 30.00 in - NNE 4.6 mph - N/A   Clear
1:00 AM 66.2 °F - 62.6 °F 88% 29.98 in - Calm Calm - N/A   Clear
2:00 AM 66.2 °F - 62.6 °F 88% 29.98 in - ENE 4.6 mph - N/A   Clear
3:00 AM 65 °F - 62 °F 85% 29.84 in 12 mi NE 2.3 mph - -   Clear
3:00 AM 64.4 °F - 60.8 °F 88% 29.98 in - NE 2.3 mph - N/A   Clear
4:00 AM 64.4 °F - 60.8 °F 88% 29.98 in - ENE 5.8 mph - N/A   Clear
5:00 AM 66.2 °F - 60.8 °F 83% 30.00 in - ENE 2.3 mph - N/A   Clear
6:00 AM 64 °F - 60 °F 84% 29.88 in 12 mi NE 3.5 mph - -   Clear
6:00 AM 64.4 °F - 60.8 °F 88% 30.02 in - NE 3.5 mph - N/A   Clear
7:00 AM 71.6 °F - 62.6 °F 73% 30.04 in - NNE 3.5 mph - N/A   Clear
8:00 AM 77.0 °F - 62.6 °F 61% 30.03 in - WSW 2.3 mph - N/A   Clear
9:00 AM 77 °F - 66 °F 61% 29.88 in 12 mi WSW 4.6 mph - -   Scattered Clouds
9:00 AM 77.0 °F - 66.2 °F 69% 30.05 in 6.2 mi WSW 4.6 mph - N/A   Scattered Clouds
10:00 AM 78.8 °F - 64.4 °F 61% 30.04 in 6.2 mi West 5.8 mph - N/A   Scattered Clouds
11:00 AM 80.6 °F 83.2 °F 68.0 °F 65% 30.02 in 6.2 mi SW 8.1 mph - N/A   Scattered Clouds
12:00 PM 80 °F - 69 °F 62% 29.82 in 12 mi WSW 9.2 mph - -   Partly Cloudy
12:00 PM 80.6 °F 83.9 °F 69.8 °F 70% 29.98 in 6.2 mi WSW 9.2 mph - N/A   Scattered Clouds
1:00 PM 78.8 °F - 69.8 °F 74% 29.96 in 6.2 mi SW 12.7 mph - N/A   Scattered Clouds
1:15 PM 73.4 °F - 69.8 °F 88% 29.98 in 5.6 mi WSW 13.8 mph - N/A Rain , Thunderstorm Heavy Rain Showers
1:23 PM 71.6 °F - 68.0 °F 88% 29.97 in 0.7 mi SW 13.8 mph - N/A Rain , Thunderstorm Heavy Rain Showers
1:41 PM 69.8 °F - 68.0 °F 94% 29.98 in 0.4 mi South 8.1 mph - N/A Rain , Thunderstorm Heavy Thunderstorms and Rain
1:49 PM 68.0 °F - 66.2 °F 94% 29.99 in 0.2 mi East 8.1 mph - N/A Rain , Thunderstorm Heavy Thunderstorms and Rain
2:00 PM 64.4 °F - 62.6 °F 94% 29.98 in 0.3 mi East 6.9 mph - N/A Rain , Thunderstorm Heavy Thunderstorms and Rain
2:15 PM 64.4 °F - 62.6 °F 94% 29.94 in 1.2 mi SE 3.5 mph - N/A Rain , Thunderstorm Light Thunderstorms and Rain
3:00 PM 64 °F - 63 °F 94% 29.88 in 4 mi ENE 4.6 mph - - Rain Light Rain
3:00 PM 64.4 °F - 62.6 °F 94% 29.96 in 3.7 mi ENE 4.6 mph - N/A Rain , Thunderstorm Light Thunderstorms and Rain
4:00 PM 66.2 °F - 64.4 °F 94% 29.94 in 3.1 mi SE 3.5 mph - N/A Rain , Thunderstorm Light Thunderstorms and Rain
5:00 PM 66.2 °F - 64.4 °F 94% 29.95 in 6.2 mi NE 3.5 mph - N/A Rain Light Rain
6:00 PM 66 °F - 64 °F 91% 29.91 in 9 mi ENE 4.6 mph - - Rain Light Rain
6:00 PM 66.2 °F - 64.4 °F 94% 29.96 in 6.2 mi ENE 4.6 mph - N/A Fog , Rain Light Rain
7:00 PM 68.0 °F - 64.4 °F 88% 29.97 in - SW 4.6 mph - N/A   Clear
8:00 PM 66.2 °F - 64.4 °F 94% 30.00 in 6.2 mi East 1.2 mph - N/A Fog Patches of Fog
9:00 PM 67 °F - 64 °F 86% 29.91 in 12 mi Calm Calm - - Rain Light Rain
9:00 PM 68.0 °F - 64.4 °F 88% 30.02 in 6.2 mi Calm Calm - N/A Rain Light Rain
10:00 PM 66.2 °F - 64.4 °F 94% 30.02 in 6.2 mi East 3.5 mph - N/A Rain Light Rain
11:00 PM 68.0 °F - 64.4 °F 88% 30.01 in 6.2 mi ENE 4.6 mph - N/A Rain Light Rain